Council Bluffs, IA

2:59 AM CST on December 05, 2016 (GMT -0600)
Council Bluffs Municipal

Weather History for KCBF - April, 2013

Change the Weather History Date:

Thursday, April 11, 2013

  Actual Average Record
Temperature  
Mean Temperature 32 °F -  
Max Temperature 35 °F 58 °F 86 °F (2006)
Min Temperature 30 °F 40 °F 26 °F (1997)
Degree Days  
Heating Degree Days 32    
Moisture  
Dew Point 31 °F    
Average Humidity 94    
Maximum Humidity 100    
Minimum Humidity 81    
Precipitation  
Precipitation 0.01 in - - ()
Sea Level Pressure  
Sea Level Pressure 29.67 in    
Wind  
Wind Speed 11 mph (WNW)    
Max Wind Speed 22 mph    
Max Gust Speed 24 mph    
Visibility 7 miles    
Events Rain , Snow    
Averages and records for this station are not official NWS values.
T = Trace of Precipitation, MM = Missing Value Source: NWS Daily Summary

Daily Weather History Graph

Daily Weather History Graph

Search for Another Location

Airport or City:

Trip Planner

Search our weather history database for the weather conditions in past years. The results will help you decide how hot, cold, wet, or windy it might be!

Date:

Astronomy

Apr. 11, 2013 Rise Set
Actual Time 6:49 AM CDT 7:59 PM CDT
Civil Twilight 6:21 AM CDT 8:27 PM CDT
Nautical Twilight 5:47 AM CDT 9:01 PM CDT
Astronomical Twilight 5:11 AM CDT 9:37 PM CDT
Moon 7:20 AM CDT (4/11) 9:35 PM CDT (4/11)
Length of Visible Light 14h 06m
Length of Day
13h 09m
New Moon, 2% of the Moon is Illuminated
Apr 11
New Moon
Apr 18
First Quarter
Apr 25
Full
May 2
Last Quarter
May 9
New

Hourly Weather History & Observations

Time (CDT) Temp. Windchill Dew Point Humidity Pressure Visibility Wind Dir Wind Speed Gust Speed Precip Events Conditions
12:15 AM 33.8 °F 25.3 °F 33.8 °F 100% 29.77 in 3.0 mi WNW 11.5 mph - N/A   Light Drizzle
12:35 AM 33.8 °F 25.8 °F 33.8 °F 100% 29.76 in 2.0 mi NW 10.4 mph 16.1 mph N/A   Light Drizzle
12:55 AM 32.0 °F 23.0 °F 32.0 °F 100% 29.76 in 2.5 mi NW 11.5 mph - N/A   Overcast
1:15 AM 32.0 °F 23.0 °F 32.0 °F 100% 29.75 in 3.0 mi NW 11.5 mph - N/A   Overcast
1:35 AM 32.0 °F 24.2 °F 32.0 °F 100% 29.75 in 3.0 mi NW 9.2 mph 15.0 mph N/A Rain Light Rain
1:55 AM 32.0 °F 23.6 °F 32.0 °F 100% 29.75 in 4.0 mi WNW 10.4 mph - N/A Rain Light Rain
2:15 AM 32.0 °F 24.2 °F 32.0 °F 100% 29.74 in 3.0 mi NW 9.2 mph - N/A Snow Light Snow
2:35 AM 32.0 °F 24.2 °F 32.0 °F 100% 29.73 in 3.0 mi NW 9.2 mph - N/A Snow Light Snow
2:55 AM 32.0 °F 24.2 °F 32.0 °F 100% 29.72 in 6.0 mi NW 9.2 mph - N/A Rain Light Rain
3:15 AM 32.0 °F 24.2 °F 32.0 °F 100% 29.71 in 5.0 mi NW 9.2 mph - N/A Rain Light Rain
3:35 AM 32.0 °F 23.6 °F 32.0 °F 100% 29.71 in 4.0 mi NW 10.4 mph - N/A Snow Light Snow
3:55 AM 32.0 °F 23.0 °F 32.0 °F 100% 29.69 in 6.0 mi NW 11.5 mph - N/A Rain Light Rain
4:15 AM 32.0 °F 24.8 °F 32.0 °F 100% 29.69 in 4.0 mi NW 8.1 mph - N/A Rain Light Rain
4:35 AM 32.0 °F 24.8 °F 32.0 °F 100% 29.67 in 3.0 mi NW 8.1 mph - N/A Snow Light Snow
4:55 AM 32.0 °F 24.8 °F 32.0 °F 100% 29.66 in 2.0 mi NW 8.1 mph - N/A Snow Light Snow
5:15 AM 32.0 °F 25.6 °F 32.0 °F 100% 29.65 in 2.5 mi WNW 6.9 mph - N/A Snow Light Snow
5:35 AM 32.0 °F 25.6 °F 32.0 °F 100% 29.65 in 4.0 mi WNW 6.9 mph - N/A Snow Light Snow
5:55 AM 32.0 °F 25.6 °F 32.0 °F 100% 29.66 in 7.0 mi West 6.9 mph - N/A   Overcast
6:15 AM 32.0 °F 24.8 °F 32.0 °F 100% 29.66 in 7.0 mi West 8.1 mph - N/A   Overcast
6:35 AM 32.0 °F 24.8 °F 32.0 °F 100% 29.66 in 5.0 mi West 8.1 mph - N/A   Overcast
6:55 AM 32.0 °F 24.8 °F 32.0 °F 100% 29.66 in 4.0 mi West 8.1 mph - N/A   Overcast
7:15 AM 32.0 °F 25.6 °F 32.0 °F 100% 29.66 in 5.0 mi West 6.9 mph - N/A   Overcast
7:35 AM 32.0 °F 24.8 °F 32.0 °F 100% 29.66 in 5.0 mi West 8.1 mph 15.0 mph N/A   Overcast
7:55 AM 32.0 °F 22.5 °F 30.2 °F 93% 29.66 in 4.0 mi West 12.7 mph - N/A   Overcast
8:15 AM 32.0 °F 23.0 °F 30.2 °F 93% 29.67 in 4.0 mi West 11.5 mph - N/A   Overcast
8:35 AM 30.2 °F 19.8 °F 30.2 °F 100% 29.66 in 6.0 mi West 13.8 mph - N/A   Overcast
8:55 AM 30.2 °F 21.9 °F 30.2 °F 100% 29.66 in 9.0 mi West 9.2 mph - N/A   Overcast
9:15 AM 30.2 °F 21.3 °F 30.2 °F 100% 29.67 in 9.0 mi WSW 10.4 mph - N/A   Overcast
9:35 AM 30.2 °F 21.3 °F 30.2 °F 100% 29.66 in 9.0 mi West 10.4 mph - N/A   Overcast
9:55 AM 32.0 °F 22.5 °F 30.2 °F 93% 29.65 in 10.0 mi West 12.7 mph - N/A   Overcast
10:15 AM 32.0 °F 23.0 °F 30.2 °F 93% 29.66 in 10.0 mi West 11.5 mph - N/A   Overcast
10:35 AM 32.0 °F 23.6 °F 30.2 °F 93% 29.66 in 9.0 mi West 10.4 mph - N/A   Overcast
10:55 AM 32.0 °F 22.5 °F 30.2 °F 93% 29.66 in 5.0 mi West 12.7 mph - N/A   Overcast
11:15 AM 32.0 °F 23.6 °F 30.2 °F 93% 29.66 in 5.0 mi West 10.4 mph - N/A   Overcast
11:35 AM 33.8 °F 24.8 °F 30.2 °F 87% 29.65 in 10.0 mi West 12.7 mph - N/A   Overcast
12:15 PM 33.8 °F 23.9 °F 30.2 °F 87% 29.65 in 10.0 mi West 15.0 mph 21.9 mph N/A   Overcast
12:35 PM 33.8 °F 24.3 °F 30.2 °F 87% 29.65 in 10.0 mi West 13.8 mph - N/A   Light Drizzle
12:55 PM 33.8 °F 23.5 °F 30.2 °F 87% 29.65 in 10.0 mi West 16.1 mph - N/A   Light Drizzle
1:15 PM 33.8 °F 24.8 °F 30.2 °F 87% 29.64 in 10.0 mi West 12.7 mph 19.6 mph N/A   Light Drizzle
1:35 PM 33.8 °F 23.5 °F 30.2 °F 87% 29.64 in 10.0 mi West 16.1 mph - N/A   Light Drizzle
1:55 PM 33.8 °F 24.8 °F 30.2 °F 87% 29.63 in 9.0 mi West 12.7 mph - N/A   Light Drizzle
2:15 PM 33.8 °F 23.9 °F 32.0 °F 93% 29.63 in 6.0 mi West 15.0 mph - N/A Rain Light Rain
2:35 PM 33.8 °F 24.3 °F 32.0 °F 93% 29.63 in 2.0 mi West 13.8 mph 20.7 mph N/A Snow Light Snow
2:55 PM 33.8 °F - 32.0 °F 93% 29.63 in 9.0 mi North - - N/A Rain Light Rain
3:15 PM 33.8 °F 24.3 °F 32.0 °F 93% 29.63 in 10.0 mi WNW 13.8 mph - N/A   Overcast
3:35 PM 33.8 °F 25.3 °F 32.0 °F 93% 29.64 in 4.0 mi West 11.5 mph 18.4 mph N/A Snow Light Snow
3:55 PM 33.8 °F 23.2 °F 33.8 °F 100% 29.64 in 2.0 mi West 17.3 mph - N/A Snow Light Snow
4:15 PM 35.6 °F 27.5 °F 33.8 °F 93% 29.64 in 4.0 mi WNW 11.5 mph 17.3 mph N/A Snow Light Snow
4:35 PM 35.6 °F 28.6 °F 33.8 °F 93% 29.64 in 4.0 mi West 9.2 mph 16.1 mph N/A Snow Light Snow
4:55 PM 35.6 °F 27.5 °F 33.8 °F 93% 29.63 in 8.0 mi West 11.5 mph 17.3 mph 0.01 in   Overcast
5:15 PM 35.6 °F 28.0 °F 33.8 °F 93% 29.64 in 9.0 mi West 10.4 mph 16.1 mph N/A   Overcast
5:35 PM 35.6 °F 26.6 °F 32.0 °F 87% 29.64 in 10.0 mi West 13.8 mph 21.9 mph N/A   Overcast
5:55 PM 35.6 °F 26.6 °F 33.8 °F 93% 29.63 in 10.0 mi West 13.8 mph - N/A Rain Light Rain
6:15 PM 35.6 °F 27.1 °F 33.8 °F 93% 29.63 in 8.0 mi West 12.7 mph 19.6 mph N/A Rain Light Rain
6:35 PM 35.6 °F 26.6 °F 33.8 °F 93% 29.64 in 10.0 mi West 13.8 mph - N/A Rain Light Rain
6:55 PM 35.6 °F 28.0 °F 33.8 °F 93% 29.64 in 9.0 mi WNW 10.4 mph 17.3 mph N/A Rain Light Rain
7:15 PM 35.6 °F 26.6 °F 32.0 °F 87% 29.65 in 10.0 mi WNW 13.8 mph 19.6 mph N/A   Overcast
7:35 PM 35.6 °F 26.2 °F 32.0 °F 87% 29.65 in 10.0 mi WNW 15.0 mph 20.7 mph N/A   Overcast
7:55 PM 35.6 °F 24.2 °F 32.0 °F 87% 29.65 in 10.0 mi WNW 21.9 mph - N/A   Light Drizzle
8:15 PM 33.8 °F 23.9 °F 30.2 °F 87% 29.66 in 10.0 mi WNW 15.0 mph 21.9 mph N/A   Light Drizzle
8:35 PM 33.8 °F 24.8 °F 30.2 °F 87% 29.67 in 10.0 mi WNW 12.7 mph - N/A   Overcast
8:55 PM 33.8 °F 25.3 °F 30.2 °F 87% 29.67 in 10.0 mi WNW 11.5 mph 18.4 mph N/A   Overcast
9:15 PM 33.8 °F 24.8 °F 30.2 °F 87% 29.68 in 10.0 mi WNW 12.7 mph 20.7 mph N/A   Light Drizzle
9:35 PM 33.8 °F 23.9 °F 30.2 °F 87% 29.68 in 10.0 mi NW 15.0 mph - N/A   Overcast
9:55 PM 33.8 °F 24.8 °F 30.2 °F 87% 29.68 in 10.0 mi WNW 12.7 mph - N/A Rain Light Rain
10:15 PM 33.8 °F 23.5 °F 28.4 °F 81% 29.69 in 10.0 mi NW 16.1 mph 24.2 mph N/A Rain Light Rain
10:35 PM 33.8 °F 24.3 °F 30.2 °F 87% 29.69 in 10.0 mi NW 13.8 mph - N/A Rain Light Rain
10:55 PM 32.0 °F 22.5 °F 30.2 °F 93% 29.69 in 10.0 mi NW 12.7 mph 20.7 mph N/A   Overcast
11:15 PM 32.0 °F 20.8 °F 30.2 °F 93% 29.69 in 10.0 mi WNW 17.3 mph - N/A   Overcast
11:35 PM 32.0 °F 23.0 °F 28.4 °F 87% 29.69 in 10.0 mi NW 11.5 mph 19.6 mph N/A   Overcast
11:55 PM 32.0 °F 22.1 °F 28.4 °F 87% 29.70 in 10.0 mi WNW 13.8 mph 19.6 mph N/A   Overcast